Weather Service Report


771 
ASUS42 KRAH 290310
RWRRAH
NORTH CAROLINA WEATHER ROUNDUP
NATIONAL WEATHER SERVICE RALEIGH NC
1100 PM EDT WED JUN 28 2017

NOTE: "FAIR" INDICATES FEW OR NO CLOUDS BELOW 12,000 FEET WITH NO
SIGNIFICANT WEATHER AND/OR OBSTRUCTIONS TO VISIBILITY.

NCZ001-053-055-056-065-067-290400-
WESTERN NORTH CAROLINA
  
CITY           SKY/WX    TMP DP  RH WIND       PRES   REMARKS
ASHEVILLE      CLEAR     64  57  78 CALM      30.25R                  
JEFFERSON      CLEAR     60  54  81 CALM      30.28R                  
MORGANTON      CLOUDY    67  62  85 CALM      30.25R                  
HICKORY        CLEAR     68  58  70 CALM      30.20R                  
RUTHERFORDTON  MOCLDY    67  64  88 CALM      30.21R                  
MOUNT AIRY     MOCLDY    72  59  64 CALM      30.23R                  
BOONE          NOT AVBL                                               
$$
 
NCZ021-022-025-041-071-084-088-290400-
CENTRAL NORTH CAROLINA
  
CITY           SKY/WX    TMP DP  RH WIND       PRES   REMARKS
CHARLOTTE      PTCLDY    77  56  48 SE8       30.20R                  
GREENSBORO     PTCLDY    69  59  70 S6        30.20R                  
WINSTON-SALEM  CLEAR     68  58  70 CALM      30.21R                  
RALEIGH-DURHAM PTCLDY    65  57  75 CALM      30.20R                  
FORT BRAGG     CLEAR     69  59  69 CALM      30.18R                  
FAYETTEVILLE   CLEAR     74  58  57 SE12      30.19R                  
BURLINGTON     CLEAR     64  61  90 CALM      30.20R                  
LAURINBURG     CLEAR     71  64  78 SE6       30.20R                  
$$
 
NCZ011-015-027-028-043-044-047-080-103-290400-
NORTHEASTERN NORTH CAROLINA
  
CITY           SKY/WX    TMP DP  RH WIND       PRES   REMARKS
ROCKY MT-WILSO CLEAR     65  59  81 CALM      30.20R                  
GREENVILLE     CLEAR     72  61  68 S6        30.21R                  
WASHINGTON     CLEAR    N/A N/A N/A CALM      30.21R                  
ELIZABETH CITY PTCLDY    70  63  78 S3        30.21R                  
MANTEO         CLEAR     69  62  78 SE6       30.22R                  
CAPE HATTERAS  NOT AVBL                                               
$$
 
NCZ078-087-090-091-093-098-101-290400-
SOUTHEASTERN NORTH CAROLINA
  
CITY           SKY/WX    TMP DP  RH WIND       PRES   REMARKS
LUMBERTON      PTCLDY    71  60  68 SE3       30.19R                  
GOLDSBORO      CLEAR     71  62  72 SE5       30.19R                  
KINSTON        CLEAR     69  61  75 S3        30.21R                  
KENANSVILLE    PTCLDY    63  61  94 CALM      30.21R                  
NEW BERN       CLEAR     67  61  81 CALM      30.21R                  
CHERRY POINT   NOT AVBL                                               
BEAUFORT       CLEAR     70  60  70 CALM      30.20R                  
JACKSONVILLE   PTCLDY    68  64  87 CALM      30.20R                  
WILMINGTON     CLEAR     73  59  61 E3        30.20R                  
$$

  

Return to Home page


Western Regional Climate Center, wrcc@dri.edu